Weather History for Szeged, Hungary

Change the Weather History Date:

Tuesday, January 8, 2013

  Actual Average (LRAR) Record (LRAR)
Temperature  
Mean Temperature 22 °F -  
Max Temperature 33 °F 37 °F 57 °F (2001)
Min Temperature 12 °F 24 °F 6 °F (2003)
Degree Days  
Heating Degree Days 42    
Moisture  
Dew Point 17 °F    
Average Humidity 76    
Maximum Humidity 93    
Minimum Humidity 42    
Precipitation  
Precipitation 0.00 in 0.04 in - ()
Sea Level Pressure  
Sea Level Pressure 30.37 in    
Wind  
Wind Speed 3 mph ()    
Max Wind Speed 8 mph    
Max Gust Speed -    
Visibility 9.9 miles    
Events      
Averages and records for this station are not official NWS values.
T = Trace of Precipitation, MM = Missing Value Source: Averaged Metar Reports

Daily Weather History Graph

Daily Weather History Graph

Search for Another Location

Airport:

Trip Planner

Search our weather history database for the weather conditions in past years. The results will help you decide how hot, cold, wet, or windy it might be!

Date:

Astronomy

Jan. 08, 2013 Rise Set
Actual Time 7:21 AM CET 4:11 PM CET
Civil Twilight 6:47 AM CET 4:45 PM CET
Nautical Twilight 6:09 AM CET 5:23 PM CET
Astronomical Twilight 5:33 AM CET 5:59 PM CET
Moon 3:31 AM CET (1/8) 12:58 PM CET (1/8)
Length of Visible Light 9h 58m
Length of Day
8h 49m
Waning Crescent, 16% of the Moon is Illuminated
Jan 8
Waning Crescent
Jan 11
New
Jan 19
First Quarter
Jan 27
Full
Feb 3
Last Quarter

Hourly Weather History & Observations

Time (CET) Temp. Windchill Dew Point Humidity Pressure Visibility Wind Dir Wind Speed Gust Speed Precip Events Conditions
12:45 AM 17.6 °F 9.3 °F 12.2 °F 79% 30.39 in - NW 5.8 mph - N/A   Clear
1:45 AM 17.6 °F 12.3 °F 14.0 °F 86% 30.39 in - NW 3.5 mph - N/A   Clear
3:45 AM 15.8 °F - 14.0 °F 93% 30.39 in - NNW 2.3 mph - N/A   Clear
4:45 AM 15.8 °F - 12.2 °F 86% 30.39 in - North 2.3 mph - N/A   Clear
5:15 AM 15.8 °F 10.2 °F 14.0 °F 93% 30.39 in - NW 3.5 mph - N/A   Clear
5:45 AM 19.4 °F 10.4 °F 15.8 °F 86% 30.39 in - WNW 6.9 mph - N/A   Clear
6:15 AM 19.4 °F 11.5 °F 15.8 °F 86% 30.39 in - West 5.8 mph - N/A   Clear
7:00 AM 19 °F - 15 °F 77% 30.42 in 25 mi WNW 4.5 mph - -   Partly Cloudy
7:15 AM 19.4 °F 12.8 °F 15.8 °F 86% 30.39 in - WNW 4.6 mph - N/A   Clear
7:45 AM 19.4 °F 12.8 °F 14.0 °F 80% 30.39 in - NW 4.6 mph - N/A   Clear
8:15 AM 21.2 °F 16.4 °F 15.8 °F 80% 30.39 in - NNW 3.5 mph - N/A   Clear
8:45 AM 21.2 °F - 15.8 °F 80% 30.39 in - Calm Calm - N/A   Clear
9:15 AM 23.0 °F - 17.6 °F 80% 30.42 in - WSW 1.2 mph - N/A   Clear
9:45 AM 24.8 °F - 17.6 °F 74% 30.42 in - WSW 1.2 mph - N/A   Clear
10:15 AM 26.6 °F - 17.6 °F 69% 30.42 in - WNW 1.2 mph - N/A   Clear
10:45 AM 28.4 °F - 17.6 °F 64% 30.42 in - WNW 1.2 mph - N/A   Clear
11:15 AM 26.6 °F 22.6 °F 17.6 °F 69% 30.39 in - West 3.5 mph - N/A   Clear
11:45 AM 28.4 °F - 15.8 °F 59% 30.39 in - West 1.2 mph - N/A   Clear
12:15 PM 28.4 °F - 17.6 °F 64% 30.39 in - West 2.3 mph - N/A   Clear
12:45 PM 32.0 °F - 17.6 °F 55% 30.36 in 6.2 mi Calm Calm - N/A   Mostly Cloudy
1:00 PM 31 °F - 17 °F 42% 30.39 in 19 mi Calm Calm - -   Partly Cloudy
1:45 PM 30.2 °F 26.7 °F 17.6 °F 60% 30.36 in 6.2 mi SSW 3.5 mph - N/A   Mostly Cloudy
2:15 PM 28.4 °F 23.3 °F 17.6 °F 64% 30.36 in - South 4.6 mph - N/A   Clear
2:45 PM 26.6 °F 19.1 °F 17.6 °F 69% 30.36 in - South 6.9 mph - N/A   Clear
3:15 PM 24.8 °F 17.9 °F 15.8 °F 69% 30.36 in - South 5.8 mph - N/A   Clear
4:45 PM 23.0 °F 15.8 °F 17.6 °F 80% 30.33 in - South 5.8 mph - N/A   Clear
5:15 PM 23.0 °F 18.4 °F 17.6 °F 80% 30.33 in - SSE 3.5 mph - N/A   Clear
5:45 PM 23.0 °F 17.0 °F 17.6 °F 80% 30.33 in - SSE 4.6 mph - N/A   Clear
6:15 PM 23.0 °F 17.0 °F 17.6 °F 80% 30.33 in - SSE 4.6 mph - N/A   Clear
6:45 PM 23.0 °F 18.4 °F 17.6 °F 80% 30.33 in - SE 3.5 mph - N/A   Clear
7:00 PM 23 °F - 18 °F 73% 30.36 in 12 mi SE 2.2 mph - -   Partly Cloudy
7:15 PM 23.0 °F 15.8 °F 17.6 °F 80% 30.33 in - SE 5.8 mph - N/A   Clear
7:45 PM 23.0 °F 17.0 °F 19.4 °F 86% 30.33 in 6.2 mi SE 4.6 mph - N/A   Overcast
8:15 PM 23.0 °F 15.8 °F 17.6 °F 80% 30.33 in - SE 5.8 mph - N/A   Clear
8:45 PM 23.0 °F 17.0 °F 17.6 °F 80% 30.33 in - SSE 4.6 mph - N/A   Clear
9:45 PM 23.0 °F 14.7 °F 17.6 °F 80% 30.30 in - SSE 6.9 mph - N/A   Clear
10:45 PM 24.8 °F 16.9 °F 17.6 °F 74% 30.30 in - SSE 6.9 mph - N/A   Clear
11:45 PM 24.8 °F 16.1 °F 17.6 °F 74% 30.27 in - South 8.1 mph - N/A   Clear